Home > Time Zones > World Clock > Weather > U.S.A. > Napa > Past weeks

Flag for U.S.A. Weather past 2 weeks in Napa, California, U.S.A.

Now
58 °F

Clear.


Feels Like: 56 °F
Forecast: 55 / 78 °F
Wind: 9 mph from West

Location: Napa County Airport

Current Time: Jun 1, 2015 at 10:47:19 PM

Latest Report: Jun 1, 2015 at 9:54 PM


Visibility: 10 mi

Pressure: 30.01 "Hg

Humidity: 87%

Dew point: 54 °F

Location of NapaLocation

Historic Weather in Napa — Graph

°F

Napa temperature yesterday

Maximum temperature yesterday: 67 °F (at 12:54 PM)
Minimum temperature yesterday: 50 °F (at 3:54 AM)
Average temperature yesterday: 57 °F

Past Weeks' High & Low Weather Summary

 TemperatureHumidityPressure
High74 °F (Jun 1, 4:54 PM)97% (May 29, 10:54 PM)30.09 "Hg (May 29, 10:54 PM)
Low49 °F (May 20, 1:54 AM)50% (Jun 1, 4:54 PM)29.83 "Hg (May 30, 5:54 PM)
Average57 °F78%29.95 "Hg
* Reported May 17 9:54 PM — Jun 1 9:54 PM, Napa, Weather by CustomWeather, © 2015

Note: Actual official high and low records may vary slightly from our data, if they occured in-between our weather recording intervals... More about our weather records

Advertising

Napa weather history for previous 24 hours

 ConditionsComfort  
Time TempWeatherWind HumidityBarometerVisibility
9:54 PM
Mon, Jun 1
58 °FClear.9 mph87%30.01 "Hg10 mi
7:54 PM64 °FSunny.17 mph70%29.99 "Hg10 mi
6:54 PM69 °FScattered clouds.16 mph59%29.98 "Hg10 mi
5:54 PM70 °FBroken clouds.16 mph55%29.98 "Hg10 mi
4:54 PM74 °FSunny.13 mph50%29.98 "Hg10 mi
3:54 PM73 °FPartly sunny.13 mph51%29.98 "Hg10 mi
2:54 PM71 °FOvercast.13 mph59%29.99 "Hg10 mi
1:54 PM71 °FScattered clouds.14 mph59%30.00 "Hg10 mi
12:54 PM69 °FScattered clouds.9 mph63%30.00 "Hg10 mi
11:54 AM66 °FPartly sunny.14 mph70%30.01 "Hg10 mi
10:54 AM64 °FOvercast.12 mph75%30.01 "Hg10 mi
9:54 AM61 °FMostly cloudy.10 mph81%30.00 "Hg10 mi
8:54 AM57 °FFog.3 mph93%29.99 "Hg2 mi
7:54 AM55 °FFog.7 mph93%29.98 "Hg6 mi
6:54 AM54 °FFog.3 mph97%29.96 "Hg5 mi
5:54 AM54 °FFog.3 mph97%29.95 "Hg6 mi
4:54 AM55 °FOvercast.6 mph87%29.94 "Hg10 mi
3:54 AM56 °FOvercast.7 mph81%29.93 "Hg10 mi
2:54 AM57 °FOvercast.9 mph78%29.93 "Hg10 mi
1:54 AM57 °FOvercast.12 mph74%29.93 "Hg10 mi
12:54 AM56 °FOvercast.13 mph77%29.93 "Hg10 mi
11:54 PM
Sun, May 31
56 °FPassing clouds.9 mph77%29.94 "Hg10 mi
10:54 PM56 °FOvercast.10 mph77%29.93 "Hg10 mi
Weather by CustomWeather, © 2015

See weather overviewHow to use our weather pages